Regional Weather Roundup
Issued by NWS

Home | Current Version | Previous Version | Graphics & Text | Print | Product List | Glossary On
Versions: 1 2 3 4 5 6 7 8 9 10 11 12 13 14 15 16 17 18 19 20 21 22 23 24 25 26 27 28 29 30 31 32 33 34 35 36 37 38 39 40 41 42 43 44 45 46 47 48 49 50
000
ASUS45 KCYS 142110
RWRWY

WYOMING REGIONAL WEATHER ROUNDUP
NATIONAL WEATHER SERVICE CHEYENNE WY
300 PM MDT SUN SEP 14 2014

NOTE:  "FAIR" INDICATES FEW OR NO CLOUDS BELOW 12,000 FEET
WITH NO SIGNIFICANT WEATHER AND/OR OBSTRUCTIONS TO VISIBILITY.

WYZ001-142200-
YELLOWSTONE NATIONAL PARK

CITY           SKY/WX    TMP DP  RH WIND       PRES   REMARKS
LK YELLOWSTONE   N/A     65  21  18 W9        30.22R
W YELLOWSTONE  NOT AVBL

$$
WYZ002>013-054>058-071-098>099-142200-
NORTHERN WYOMING

CITY           SKY/WX    TMP DP  RH WIND       PRES   REMARKS
JACKSON        SUNNY     73  18  12 W9        30.14R
CODY           SUNNY     63  36  36 N9        30.08S
GREYBULL       SUNNY     69  35  28 NW6       30.02F
WORLAND        SUNNY     66  40  38 N5        30.04S
SHERIDAN       MOSUNNY   61  39  44 VRB7      30.08F
BUFFALO        MOSUNNY   59  38  45 NW13      30.10S
GILLETTE       PTSUNNY   60  41  49 NE5       30.08S
HULETT         FAIR      57  41  54 MISG      30.10
NEWCASTLE      FAIR      59  37  44 SE7       30.08

$$
WYZ014>020-022>026-101>103-142200-
CENTRAL WYOMING

CITY           SKY/WX    TMP DP  RH WIND       PRES   REMARKS
BIG PINEY      SUNNY     76  18  11 NW14G24   30.17F
PINEDALE       CLEAR     72  21  15 W16G32    30.18S
DUBOIS         FAIR      70  14  11 W31G44    30.13R
LANDER         MOSUNNY   77  35  21 SE9       30.01F
RIVERTON       SUNNY     72  32  23 NE8       30.03F
CASPER         MOSUNNY   79  23  12 NW17G23   30.01F
DOUGLAS        SUNNY     72  38  29 VRB6      30.04F

$$
WYZ021-027>030-104>119-142200-
SOUTHERN WYOMING

CITY           SKY/WX    TMP DP  RH WIND       PRES   REMARKS
EVANSTON       MOSUNNY   77  28  16 NW15G25   30.20F
KEMMERER       CLEAR     73  23  15 W16G32    30.20F
FORT BRIDGER   FAIR      80  27  14 W15G24    30.21F
ROCK SPRINGS   SUNNY     79  24  13 W24G32    30.13F
DIXON          FAIR      80  36  21 SW18G28   30.15F
RAWLINS        MOSUNNY   78  24  13 W21G30    30.10F
SARATOGA       FAIR      73  32  21 W17G30    30.15F
LARAMIE        MOSUNNY   72  29  20 W26G36    30.15S
CHEYENNE       MOSUNNY   75  27  17 SW17      30.07S
TORRINGTON     MOSUNNY   65  49  56 SE7       30.01F
PINE BLUFFS    FAIR      77  43  29 NE14G23   30.01S

$$



USA.gov is the U.S. government's official web portal to all federal, state and local government web resources and services.